Wind_Speed
69 69 68 67 67 67 66 66 65 63 61 60 61 62 63 64 64 63 62 62 62 63 63 63 63 63 64 64 65 66 66 67 68 70 71 73 74 75
67 67 67 66 67 66 66 65 65 65 62 60 61 61 63 63 63 63 63 63 63 64 64 63 63 63 63 64 65 66 67 68 70 71 73 74 76 77
66 66 65 66 66 66 65 65 65 65 63 61 62 63 63 63 63 64 63 64 64 64 64 63 63 63 63 64 65 66 67 69 70 72 73 75 77 78
64 64 64 64 64 64 64 63 64 64 63 62 61 62 62 63 64 64 64 64 63 63 63 63 63 63 63 64 65 66 67 68 70 71 73 75 77 78
63 63 63 63 63 63 64 64 64 64 63 62 61 62 62 63 63 63 63 63 63 63 63 63 63 64 64 65 66 66 67 69 70 71 73 74 76 77
62 62 62 62 63 64 64 64 64 64 64 63 62 62 62 63 63 62 63 63 62 62 62 63 64 64 65 66 67 67 68 69 70 71 72 73 74 75
60 60 61 62 63 63 63 63 63 63 64 63 62 62 61 62 62 62 62 61 61 61 62 63 63 64 65 66 66 67 67 67 68 69 70 71 71 72
59 59 60 61 61 61 61 62 62 63 62 62 61 60 60 60 61 61 61 61 60 60 62 61 62 62 63 63 64 65 65 66 66 67 68 68 69 69
59 59 59 59 59 59 60 60 60 60 60 60 59 59 59 59 60 60 59 60 59 59 61 59 60 60 60 61 62 63 64 64 65 65 65 65 65 65
56 57 57 57 58 59 59 59 59 59 59 59 58 57 58 58 59 59 59 58 57 58 59 58 57 58 58 58 59 61 61 62 62 62 62 62 62 60
55 56 57 57 57 58 58 58 57 57 57 57 57 56 56 56 56 56 56 56 55 54 56 57 56 57 56 55 56 58 59 60 60 60 59 59 58 56
55 56 56 56 56 57 57 56 55 54 55 55 54 54 54 54 54 54 54 54 53 52 53 55 55 56 54 51 52 55 56 57 57 57 56 55 53 51
53 54 54 54 54 55 55 54 53 52 52 52 52 52 51 51 52 52 52 51 51 50 52 53 53 53 53 49 49 51 53 53 53 53 51 49 47 46
52 52 52 52 52 52 52 51 50 50 49 49 49 48 48 48 49 49 50 49 49 49 50 51 51 51 50 49 47 47 49 49 49 48 47 45 43 43
50 50 49 49 48 48 48 48 47 46 46 46 45 45 45 45 46 46 46 47 47 47 49 49 49 48 48 46 45 44 44 44 45 44 43 41 40 39
47 47 47 46 46 45 44 44 43 43 42 42 42 42 42 42 42 43 43 43 44 44 46 47 46 45 44 44 43 41 41 41 41 41 39 37 36 36
45 45 44 43 42 41 40 39 40 40 40 39 39 39 39 39 39 40 40 40 41 41 42 43 43 42 42 41 40 40 39 39 39 38 36 34 33 35
43 42 41 40 39 38 37 37 37 37 37 36 36 36 36 36 37 37 38 38 39 39 39 40 40 40 39 39 40 39 38 37 36 35 34 32 31 33
39 38 37 35 35 34 34 34 34 34 33 33 34 34 34 34 35 35 36 37 36 37 37 37 38 38 37 36 36 38 37 34 33 32 32 31 30 31
36 34 33 32 32 32 31 31 31 31 31 31 32 33 33 33 34 34 34 35 34 34 34 35 36 36 35 34 32 33 35 33 32 30 30 29 29 31
33 32 31 30 29 28 28 28 28 29 29 30 30 31 31 31 32 32 32 32 32 31 31 32 34 34 33 32 31 30 31 32 30 28 27 26 27 30
31 30 29 28 28 27 26 27 27 28 28 28 28 29 29 29 30 30 29 29 29 30 30 30 32 32 31 31 29 28 28 29 28 26 25 24 26 29
30 29 28 28 26 26 25 25 26 26 26 27 27 27 27 27 27 27 28 28 28 28 28 29 29 29 29 29 28 27 27 26 25 24 22 23 26 30
Wind_Direction
282 282 282 283 283 282 282 282 282 281 280 280 280 279 278 278 278 278 278 277 277 276 275 275 274 274 273 272 271 270 269 268 268 267 266 265 264 263
282 282 282 282 282 281 281 281 281 281 280 279 279 279 278 277 277 278 278 277 277 277 276 275 275 275 274 274 273 272 271 271 270 269 268 267 266 265
283 282 281 281 281 281 281 281 281 280 280 278 278 278 278 277 277 277 278 278 277 277 275 275 275 275 276 275 275 274 274 273 272 271 270 270 269 268
283 282 282 281 281 281 281 280 280 280 280 279 279 278 278 277 277 277 277 277 277 276 275 275 276 276 277 277 276 276 276 275 274 274 273 272 271 270
283 283 282 282 281 281 281 280 280 280 280 279 278 277 277 277 277 277 277 277 276 275 275 275 276 277 277 278 278 277 277 277 276 276 276 275 274 272
283 283 282 282 282 281 281 281 280 279 279 279 278 277 277 277 277 277 276 276 275 275 275 275 276 277 278 278 278 278 278 278 278 278 278 277 275 274
284 284 283 282 282 281 280 280 279 279 279 278 278 277 277 277 276 276 276 275 275 275 275 276 277 277 278 278 279 279 279 279 279 279 279 278 277 275
285 284 283 283 281 281 280 280 279 279 279 278 278 277 277 276 275 276 276 275 275 275 276 276 277 277 278 279 279 280 280 280 280 280 280 279 278 276
286 285 283 282 282 281 281 281 280 279 278 278 278 278 276 275 275 276 276 276 276 276 276 277 277 277 278 279 279 280 280 281 282 281 281 280 279 277
287 286 284 283 283 282 281 281 281 280 279 278 277 276 275 275 275 276 276 277 277 277 277 277 277 278 279 280 280 281 282 282 282 282 281 280 279 276
288 287 285 284 283 282 282 281 280 279 279 278 277 276 275 275 275 276 277 277 277 277 278 278 278 279 280 281 281 282 283 284 283 283 282 281 279 275
289 287 286 285 283 283 283 282 281 279 278 277 276 276 276 275 276 276 277 278 278 277 278 279 280 281 281 282 282 283 284 284 284 284 283 281 278 272
290 289 288 286 285 284 283 282 280 279 278 277 276 276 275 275 276 277 278 278 278 278 279 280 282 282 284 284 283 283 284 284 284 284 283 281 276 269
292 290 289 287 286 284 283 281 280 278 278 277 276 276 275 275 276 277 277 278 278 279 280 282 284 284 285 285 285 285 284 285 285 284 282 278 272 265
294 292 291 289 287 285 283 281 280 279 278 277 276 275 275 276 277 277 277 278 278 280 281 283 285 286 287 288 288 287 285 285 285 284 281 277 270 263
296 294 292 290 287 285 283 281 280 279 278 277 276 274 274 276 277 277 278 278 279 280 283 284 286 287 288 289 289 288 287 286 285 283 281 276 268 260
298 297 294 291 288 286 284 282 281 279 278 277 275 274 275 276 277 278 279 279 280 282 283 285 286 288 290 291 290 290 289 288 286 282 279 275 267 257
301 300 296 293 290 288 285 283 282 280 278 276 275 274 275 276 277 278 279 280 282 283 284 284 286 289 291 292 292 291 290 289 286 282 278 273 263 252
303 302 299 295 292 289 286 284 282 281 279 277 275 275 275 277 277 278 280 282 283 285 285 285 287 289 291 291 290 291 291 289 287 282 277 270 258 246
307 305 302 299 295 291 288 285 285 283 280 277 276 275 276 277 278 279 281 282 284 285 285 287 289 291 292 292 290 289 290 289 286 281 275 265 251 240
310 308 305 302 299 294 290 288 286 284 282 280 279 278 278 279 280 281 282 283 285 286 287 288 290 292 293 293 292 290 289 288 286 280 271 259 244 233
314 312 310 306 302 296 293 290 288 286 285 284 283 282 282 281 282 282 283 285 287 288 289 290 292 293 295 295 293 291 288 286 285 279 268 253 237 226
316 314 312 310 305 299 296 293 290 288 287 286 286 285 284 284 284 284 285 287 289 290 290 292 293 294 296 297 295 292 288 283 280 274 262 245 228 217
Height
5601 5596 5591 5588 5582 5578 5574 5570 5566 5564 5565 5563 5558 5554 5549 5546 5544 5541 5540 5538 5536 5535 5533 5532 5531 5530 5529 5528 5528 5527 5527 5528 5528 5529 5530 5530 5532 5534
5581 5577 5573 5569 5564 5559 5555 5551 5547 5544 5544 5546 5540 5535 5530 5527 5525 5523 5521 5519 5517 5515 5514 5512 5511 5510 5508 5507 5507 5506 5505 5505 5505 5505 5505 5505 5506 5507
5563 5558 5555 5549 5545 5540 5536 5532 5529 5525 5524 5526 5520 5516 5512 5509 5506 5504 5502 5500 5498 5496 5494 5492 5491 5489 5488 5487 5485 5484 5483 5482 5481 5480 5479 5479 5479 5480
5543 5538 5535 5530 5526 5521 5517 5513 5510 5506 5504 5504 5502 5497 5493 5490 5487 5484 5483 5481 5479 5477 5474 5472 5471 5469 5467 5465 5464 5462 5460 5458 5457 5455 5454 5453 5452 5450
5524 5519 5516 5510 5507 5502 5498 5494 5491 5487 5484 5483 5483 5478 5475 5471 5468 5465 5463 5461 5459 5457 5455 5453 5451 5449 5446 5444 5442 5440 5437 5435 5433 5430 5427 5425 5424 5422
5505 5501 5496 5491 5487 5483 5479 5475 5471 5468 5465 5463 5462 5459 5456 5452 5448 5447 5444 5442 5440 5438 5435 5433 5431 5428 5426 5423 5420 5418 5415 5412 5408 5405 5402 5399 5397 5394
5487 5482 5477 5472 5467 5463 5459 5456 5452 5449 5446 5443 5442 5440 5437 5432 5430 5426 5425 5423 5421 5418 5416 5414 5411 5409 5405 5401 5398 5395 5392 5388 5385 5381 5377 5374 5370 5367
5468 5463 5458 5453 5448 5443 5440 5436 5433 5429 5426 5423 5422 5420 5418 5413 5410 5407 5406 5404 5404 5400 5396 5395 5391 5388 5385 5381 5377 5373 5369 5366 5362 5357 5353 5349 5345 5341
5449 5444 5439 5434 5428 5425 5420 5416 5413 5410 5408 5405 5403 5402 5398 5394 5391 5389 5387 5385 5384 5380 5377 5376 5372 5369 5366 5362 5357 5352 5348 5344 5339 5335 5330 5325 5321 5316
5429 5424 5420 5415 5410 5405 5402 5398 5395 5391 5388 5385 5385 5382 5379 5375 5372 5370 5368 5366 5365 5362 5357 5357 5354 5351 5348 5343 5337 5332 5327 5322 5317 5312 5308 5303 5298 5294
5411 5406 5401 5396 5391 5385 5383 5380 5377 5373 5369 5366 5364 5362 5360 5357 5354 5352 5350 5348 5347 5345 5339 5337 5335 5332 5330 5325 5319 5312 5307 5301 5296 5291 5286 5282 5277 5273
5393 5387 5382 5377 5372 5367 5363 5361 5359 5355 5351 5348 5346 5344 5341 5339 5336 5334 5332 5330 5329 5328 5323 5319 5317 5312 5311 5309 5301 5294 5288 5282 5276 5271 5266 5262 5257 5253
5375 5369 5364 5358 5353 5349 5344 5342 5340 5336 5333 5331 5329 5327 5324 5322 5320 5317 5315 5313 5312 5310 5306 5301 5299 5294 5291 5290 5286 5278 5271 5265 5259 5254 5248 5244 5240 5237
5357 5352 5346 5340 5335 5331 5326 5324 5321 5318 5316 5314 5312 5311 5308 5306 5304 5301 5299 5297 5295 5293 5289 5284 5282 5278 5274 5271 5269 5263 5255 5248 5243 5238 5233 5229 5226 5224
5339 5333 5328 5323 5318 5314 5310 5307 5304 5302 5300 5299 5297 5295 5293 5291 5288 5285 5283 5281 5279 5277 5273 5269 5265 5262 5258 5255 5251 5247 5241 5235 5228 5223 5219 5215 5213 5212
5323 5317 5312 5306 5302 5298 5295 5291 5289 5287 5285 5284 5282 5280 5278 5276 5274 5271 5269 5267 5265 5263 5258 5254 5250 5247 5244 5240 5235 5231 5226 5221 5217 5211 5206 5204 5202 5200
5308 5302 5296 5291 5287 5283 5280 5277 5275 5273 5271 5270 5268 5267 5265 5263 5261 5258 5256 5254 5252 5250 5246 5241 5237 5234 5230 5226 5222 5217 5212 5208 5203 5199 5195 5193 5191 5189
5293 5287 5281 5277 5273 5270 5267 5265 5262 5260 5258 5256 5256 5254 5253 5251 5249 5247 5244 5242 5240 5237 5233 5229 5225 5222 5218 5214 5209 5204 5200 5196 5192 5187 5184 5182 5182 5180
5280 5275 5269 5265 5261 5258 5256 5253 5251 5248 5246 5245 5244 5243 5241 5239 5238 5235 5233 5231 5228 5225 5221 5217 5214 5210 5207 5204 5199 5192 5188 5185 5181 5178 5174 5171 5171 5172
5270 5264 5260 5255 5251 5248 5245 5243 5241 5238 5237 5235 5233 5232 5230 5228 5227 5224 5222 5220 5217 5214 5210 5207 5203 5199 5195 5192 5189 5184 5177 5174 5171 5168 5165 5163 5163 5164
5262 5256 5251 5246 5242 5239 5236 5234 5231 5229 5227 5225 5223 5221 5220 5218 5216 5214 5211 5209 5206 5203 5201 5197 5193 5189 5185 5181 5179 5175 5169 5164 5161 5158 5156 5156 5156 5158
5254 5248 5243 5238 5234 5231 5228 5225 5223 5221 5218 5216 5214 5212 5210 5208 5206 5204 5202 5199 5197 5194 5191 5188 5183 5179 5176 5172 5169 5165 5162 5157 5153 5151 5149 5149 5150 5154
5247 5241 5236 5231 5227 5223 5220 5217 5215 5212 5210 5208 5205 5203 5201 5199 5197 5195 5193 5190 5188 5185 5182 5179 5175 5171 5167 5163 5160 5156 5153 5150 5147 5145 5144 5144 5146 5150